Regional Weather Roundup
Issued by NWS

Home | Current Version | Previous Version | Text Only | Print | Product List | Glossary Off
Versions: 1 2 3 4 5 6 7 8 9 10 11 12 13 14 15 16 17 18 19 20 21 22 23 24 25 26 27 28 29 30 31 32 33 34 35 36 37 38 39 40 41 42 43 44 45 46 47 48 49 50

038
ASUS43 KLOT 292203
RWRIL

ILLINOIS REGIONAL WEATHER ROUNDUP
NATIONAL WEATHER SERVICE CHICAGO/ROMEOVILLE IL
500 PM CDT FRI APR 29 2016

NOTE: "FAIR" INDICATES FEW OR NO CLOUDS BELOW 12,000 FEET WITH NO
SIGNIFICANT WEATHER AND/OR OBSTRUCTIONS TO VISIBILITY.

* THESE STATIONS ARE NOT UNDER NWS QUALITY CONTROL. THEY ALSO MAY NOT
  REPORT WEATHER SUCH AS PRECIPITATION OR FOG.

ILZ001-002-007-009-015-016-024-292300-
NORTHWEST ILLINOIS

CITY           SKY/WX    TMP DP  RH WIND       PRES   REMARKS
MOLINE         CLOUDY    52  41  66 E10       30.08F
STERLING*      CLOUDY    48  43  81 E7        30.12R
$$

ILZ003-004-008-010-011-017-018-292300-
NORTH CENTRAL ILLINOIS

CITY           SKY/WX    TMP DP  RH WIND       PRES   REMARKS
ROCKFORD       CLOUDY    49  39  68 E10       30.13F
FREEPORT*      CLOUDY    47  39  74 NE7       30.13R
ROCHELLE*      CLOUDY    47  40  77 NE5       30.12R
DE KALB*       CLOUDY    47  40  76 E5        30.12R
$$

ILZ005-006-012>014-019>023-292300-
NORTHEAST ILLINOIS

CITY           SKY/WX    TMP DP  RH WIND       PRES   REMARKS
CHICAGO-OHARE  MOSUNNY   50  40  68 NE14      30.09F
CHICAGO-MIDWAY PTSUNNY   50  39  66 NE12      30.10R
AURORA         CLOUDY    49  40  71 NE5       30.12R
LANSING*       MOSUNNY   49  40  73 NE8       30.11S
WAUKEGAN       CLOUDY    44  38  79 NE8       30.12F
DUPAGE AIRPORT CLOUDY    50  38  63 N9        30.09F
WHEELING       PTSUNNY   47  39  74 NE12      30.11F
MORRIS*        CLOUDY    50  42  73 CALM      30.10R
NORTHERLY ISL    N/A     44  39  82 MISG        N/A
NORTHERLY ISL    N/A     44  39  82 MISG        N/A
$$

LMZ740>746-292300-
SOUTHERN LAKE MICHIGAN

STATION/POSITION SKY/WX   TEMP    WIND        PRES    VSBY  WAVE
                          AIR SEA DIR/SP/G                  HT/PER
                          (F)     (DEG/KT/KT) (MB)    (MI)  (FT/S)
SOUTHERN BUOY              40 40  360/ 10/ 12 1020.0          1/ 3
HARRISON CRIB              42     350/ 10/ 11   N/A
BURNHAM HARBOR             44      20/ 10/ 14   N/A
CALUMET HARBOR             43     340/ 13/ 15 1019.2S
BURNS HARBOR               42      10/ 12/ 14 1020.0F
MICHIGAN CITY              42     300/  8/ 10   N/A
ST. JOSEPH                 43 46                N/A           2/ 3
$$

ILZ025>027-034>036-040-047-049-050-058-095>099-292300-
WEST-CENTRAL ILLINOIS

CITY           SKY/WX    TMP DP  RH WIND       PRES   REMARKS
QUINCY         CLOUDY    55  48  77 NE13      30.02F
MACOMB*        CLOUDY    53  46  79 NE10      30.08F
PITTSFIELD*    CLOUDY    57  51  80 NE10      30.03F
$$

ILZ028>032-037-038-041>044-048-051>054-059>061-292300-
CENTRAL ILLINOIS

CITY           SKY/WX    TMP DP  RH WIND       PRES   REMARKS
BLOOMINGTON    CLOUDY    57  48  72 NE8       30.07F
DECATUR        CLOUDY    60  50  69 NE8       30.03F
PEORIA         CLOUDY    55  44  66 NE9       30.07F
LINCOLN*       PTSUNNY   59  48  66 CALM      30.05F
SPRINGFIELD    CLOUDY    59  50  72 NE10      30.03F
TAYLORVILLE    NOT AVBL
$$

ILZ033-039-045-046-055>057-062-063-292300-
EAST-CENTRAL ILLINOIS

CITY           SKY/WX    TMP DP  RH WIND       PRES   REMARKS
CHAMPAIGN      CLOUDY    59  48  67 E6        30.05F
MATTOON        CLOUDY    62  49  62 NE7       30.02S
$$

ILZ079-100>102-292300-
SOUTHWEST ILLINOIS

CITY           SKY/WX    TMP DP  RH WIND       PRES   REMARKS
ALTON          CLOUDY    63  52  67 E9        29.99F
CAHOKIA*       CLOUDY    64  53  67 E10       29.97F
SPARTA*        CLOUDY    65  55  69 E9        29.98F
$$

ILZ064>066-069>071-074>076-080>082-084>086-088>090-092>094-292300-
SOUTH-CENTRAL ILLINOIS

CITY           SKY/WX    TMP DP  RH WIND       PRES   REMARKS
CARBONDALE     CLOUDY    64  54  69 E8        29.95F
CAIRO*         CLOUDY    61  58  91 E9        29.93F
EFFINGHAM*     PTSUNNY   65  53  63 NE3       30.03S
MARION         CLOUDY    64  57  77 SE15      29.97F
MT. VERNON     CLOUDY    66  52  59 E7        30.01F
SALEM*         CLOUDY    65  53  65 E5        30.00F
$$

ILZ067-068-072-073-078-083-087-091-292300-
SOUTHEAST ILLINOIS

CITY           SKY/WX    TMP DP  RH WIND       PRES   REMARKS
LAWRENCEVILLE  CLOUDY    65  52  62 CALM      30.02F
FLORA*         CLOUDY    66  53  63 E6        30.01F
HARRISBURG*    DRIZZLE   65  57  77 SE8       29.99F
ROBINSON*      CLOUDY    64  55  73 NE5       30.01F
CARMI*         CLOUDY    66  55  69 SE10      30.00F
$$

ABBREVIATIONS USED IN REMARKS
   TC - TEMPERATURE IN CELSIUS
  WCI - WIND CHILL INDEX
   HX - HEAT INDEX
  VSB - VISIBILITY
$$





USA.gov is the U.S. government's official web portal to all federal, state and local government web resources and services.